Location: Bathurst
(33.4193°S, 149.5775°E)
Time: 09:55:33
(UTC+10:00)

Vanguard 1 Rocket - Pass Details

Date: 21 June 2021
Orbit: 650 x 4226 km, 34.3° (Epoch: 02 August)

Event Time Altitude Azimuth Distance (km) Brightness Sun altitude
Rises 10:02:33 0° 282° (WNW) 8,050 12.0 26.3°
Reaches altitude 10° 10:08:41 10° 281° (WNW) 6,639 11.7 26.9°
Maximum altitude 10:28:08 90° 194° (SSW) 2,197 9.8 28.8°
Drops below altitude 10° 10:37:37 10° 98° (E) 3,519 10.7 29.6°
Sets 10:39:51 0° 97° (E) 4,204 11.0 29.8°
